FENGYUN 1C DEB, 46992

Orbit data source: Space-Track

FENGYUN 1C DEB, 46992 is space debris in SSO originally from a launch on Mon, 10 May 1999 UTC launched from the Taiyaun Space Center, China (TSC). Fengyun 1C debris stems from the Chinese weather satellite Fengyun-1C, which was intentionally destroyed by a Chinese anti-satellite missile in 2007. This event dramatically increased the amount of space debris, with thousands of trackable fragments posing hazards to satellites and human spaceflight. The Fengyun 1C debris cloud has become a focal point in discussions about space sustainability and the need for international regulations to prevent the creation of new debris.

Loading next visibility...
Identifier
46992, 1999-025EZS
Orbit
SSO
Country
Flag of CNCN / PRC
Related business
Manufacturer
Unknown
Mission
Spacecraft
Bus & Motor
Unknown
Mass
Unknown
Launch date (UTC)
1999-05-10 (26 years ago)
Launch vehicle
Unknown
Launch site
Taiyaun Space Center, China (TSC)
Object type
Payload
Rocket body
Debris
Shape & HBR
Unknown shape, 0.1 m
Radar Cross Section
Small (<0.1 m²)

Expand to show TLE details & history
Last TLE update: 1 day ago

TLE from 1 day ago
0 FENGYUN 1C DEB
1 46992U 99025EZS 25304.25537286  .00000785  00000-0  54475-3 0  9995
2 46992  98.8894 292.1490 0071480 279.0629  80.2453 14.00622668603624
Epoch: 2025-10-31T06:07Z
TLE epoch observation values (Epoch: 2025-10-31T06:07:44.215Z)
Latitude
0.00005°
Longitude
160.41233°
Altitude
886.077 km
Speed
7.413 km/s
True Right ascension
19h 28m 35s
True Declination
0° 00' 00"
Sunlit
Object was in daylight at epoch
Visualization orbit readout
Latitude
Unknown
Longitude
Unknown
Altitude
Unknown
Speed
Unknown
Apparent Right ascension
Unknown
Apparent Declination
Unknown
Sunlit
N/A
Visualization observer readout
Local Sidereal Time
11:57:23
Azimuth
Unknown
Elevation
Unknown
Doppler factor
Unknown
Orbital elements
Apogee altitude
940.777 km
Perigee altitude
836.888 km
Semi-major axis
7,266.97 km
Eccentricity
0.00715
Inclination
98.8894°
RAAN
292.149°
Arg. of periapsis
279.0629°
True anomaly
81.05376°
Mean anomaly
80.2453°
Eccentric anomaly
80.64941°
Mean motion
3.50359 °/min
Orbital period
102.75 mins
BSTAR
0.00054475
Loading maneuver chart data...
Computing Atmospheric mass density...

Documentation

Showing up to 5 results
|